Location: Moscow
(55.7500°N, 37.5830°E)
Time: 01:42:04
(UTC+03:00)

Vanguard 3 - Pass Details

Date: 07 December 2021
Orbit: 508 x 3260 km, 33.3° (Epoch: 17 January)

Event Time Altitude Azimuth Distance (km) Brightness Sun altitude
Rises 05:51:22 0° 249° (WSW) 7,160 - -22.6°
Reaches altitude 10° 05:56:54 10° 241° (WSW) 6,199 - -21.9°
Exits shadow 05:57:07 10° 241° (WSW) 6,163 11.2 -21.8°
Maximum altitude 06:12:42 32° 188° (S) 4,228 10.7 -19.7°
Drops below altitude 10° 06:25:15 10° 133° (SE) 4,928 12.0 -18.0°
Sets 06:29:03 0° 124° (SE) 5,571 12.8 -17.5°
